Location: Albuquerque Fire Department Station 2
(35.0809°N, 106.6405°W)
Time: 23:20:04
(UTC+00:00)

Daily predictions for brighter satellites

Satellite Brightness Start Highest point End
(mag) Time Altitude Azimuth Time Altitude Azimuth Time Altitude Azimuth
Cosmos 1655 Rocket 4.3 12:00:45 10° SSW 12:06:35 42° W 12:12:30 10° N
CZ-4B R/B 4.2 12:09:03 10° NNE 12:14:23 50° E 12:19:35 10° S
Cosmos 2112 Rocket 4.2 12:10:01 10° SSW 12:15:17 81° ESE 12:20:32 10° NNE
IDEFIX/ARIANE 42P 4.1 12:13:24 10° NNW 12:16:35 16° WNW 12:19:46 10° WSW
S3M 4.3 12:14:58 10° NNW 12:20:48 44° W 12:26:40 10° SSW
SL-4 R/B 1.7 12:22:17 10° NW 12:25:50 72° SW 12:29:36 10° SE
ALOS 3.1 12:21:39 10° NNE 12:26:15 57° E 12:30:50 10° S
SKYMED 2 3.7 12:21:58 10° SSE 12:26:18 81° ENE 12:30:38 10° N
ATLAS CENTAUR R/B 4.4 12:26:45 10° NNE 12:28:49 13° NE 12:30:50 10° ENE
Cosmos 1782 Rocket 3.9 12:27:02 10° NNW 12:31:12 44° W 12:35:22 10° SSW
Cosmos 1697 Rocket 4.0 12:26:21 10° S 12:31:42 46° ESE 12:37:05 10° NE
